Wind_Speed
77 72 69 71 71 72 72 71 75 73 72 80 77 80 69 63 63 65 70 71 72 76 79 80 81 83 83 83 79 72 67 66 61 58 56 61 64 65 70 74 72 65 61
67 63 58 59 60 59 61 62 54 60 58 54 51 53 59 57 60 62 64 67 73 75 75 74 78 81 80 79 75 69 65 62 57 53 55 58 63 65 67 72 77 72 66
59 56 54 50 46 51 52 48 47 47 48 52 53 54 54 54 59 60 64 70 71 73 72 72 76 79 78 76 71 67 63 59 53 53 55 58 63 64 67 70 75 79 70
49 49 48 46 43 41 42 40 41 46 45 47 51 52 52 55 57 62 67 70 69 72 69 73 74 76 75 74 69 67 64 59 52 53 53 56 59 64 65 68 72 73 76
55 53 49 45 46 46 43 43 45 45 47 48 49 52 54 56 61 63 67 68 69 69 69 67 71 74 72 69 70 67 60 58 54 50 52 54 57 59 61 64 68 72 74
58 55 49 46 45 47 50 52 50 52 54 53 55 54 54 56 61 64 67 68 70 69 67 68 69 69 67 65 65 63 59 54 53 51 51 53 55 57 58 58 61 64 67
49 46 46 48 49 50 53 54 55 57 56 55 53 52 54 57 62 64 66 67 70 68 69 68 69 69 64 63 60 61 60 56 53 54 51 51 53 53 54 57 58 61 64
52 52 54 54 53 53 54 52 52 52 54 55 52 52 56 60 64 65 66 69 69 70 69 69 70 69 63 62 60 58 57 56 49 48 48 51 53 54 54 54 56 58 63
59 56 54 52 52 50 47 48 50 53 53 53 54 57 60 62 64 66 68 70 69 69 70 70 73 67 62 59 59 56 57 57 51 48 50 51 54 55 55 57 57 56 58
66 59 53 51 51 53 52 51 51 53 54 55 57 61 62 63 66 67 70 69 68 69 70 71 72 65 62 61 59 53 52 56 57 51 48 49 51 52 52 53 56 56 55
62 59 53 52 53 54 55 52 54 55 56 56 59 60 62 66 65 66 68 68 68 68 70 70 70 62 61 60 59 54 52 57 56 55 54 52 50 50 51 53 56 56 57
58 56 56 57 58 58 55 54 56 58 61 64 64 65 65 64 65 67 67 66 65 67 69 69 68 63 60 58 59 58 54 55 55 56 56 54 52 51 49 52 53 57 61
56 54 56 57 59 59 58 59 62 64 65 64 65 65 65 65 67 67 65 63 65 67 70 69 64 60 61 59 59 59 57 56 53 55 55 57 52 50 50 49 51 54 57
57 57 58 58 58 59 61 61 62 63 64 66 65 64 65 65 65 66 64 62 62 65 67 68 58 58 61 61 59 59 57 56 56 55 54 56 54 52 51 52 52 53 54
58 57 58 60 62 64 64 64 64 65 66 63 62 63 64 67 66 64 60 62 62 64 68 66 61 62 64 64 61 58 56 57 55 56 55 56 56 53 51 51 49 50 53
62 61 62 64 66 65 67 67 67 66 63 63 63 64 66 65 61 58 61 62 62 66 71 71 63 63 64 63 61 57 56 57 58 59 58 57 57 59 53 51 51 52 53
63 63 63 64 64 66 67 66 65 63 62 63 64 67 64 59 56 60 62 63 66 71 75 75 65 62 63 65 63 58 57 58 58 61 63 61 60 58 55 55 55 55 55
61 62 64 65 64 65 64 63 62 63 65 64 66 64 60 60 61 62 64 66 72 74 70 70 67 66 69 69 65 60 59 59 62 64 64 63 64 62 60 61 59 60 60
63 62 63 64 64 61 63 66 66 66 65 65 62 61 61 60 62 66 67 72 74 72 72 70 68 67 69 68 65 61 61 62 64 66 66 67 67 66 66 66 66 65 63
64 63 62 62 61 62 65 66 68 64 61 62 63 62 62 64 65 71 71 71 71 72 70 68 68 69 70 68 64 63 64 65 67 68 68 68 70 69 70 70 71 70 68
58 60 63 66 65 66 66 63 60 63 61 59 60 64 66 68 72 73 71 71 73 71 69 70 69 69 68 64 64 64 63 64 66 67 70 70 71 73 73 74 73 71 69
62 60 61 60 64 62 58 55 56 57 60 63 65 66 70 73 75 70 70 70 72 70 69 67 67 65 63 64 63 62 63 65 68 71 70 72 76 74 74 74 74 72 69
55 57 59 59 59 60 60 60 59 60 62 64 67 73 75 72 70 70 73 75 74 71 68 67 63 64 63 62 61 62 66 70 71 73 75 77 78 77 76 74 74 67 58
64 65 63 61 62 61 64 64 67 70 74 77 77 72 74 73 73 74 77 74 69 68 63 61 63 63 61 62 63 66 70 72 75 78 80 80 78 77 74 71 62 54 52
65 66 66 67 68 70 74 73 75 76 75 71 71 74 75 73 78 72 72 72 65 63 63 64 64 63 63 64 68 71 74 77 80 81 80 78 77 74 65 59 55 52 47
74 75 75 73 74 74 75 75 74 71 70 72 76 78 76 83 77 71 69 64 65 68 66 63 63 63 65 69 72 76 79 81 83 81 77 74 68 62 58 52 48 44 42
Wind_Direction
244 249 253 258 264 269 272 275 278 283 283 287 290 292 296 298 298 301 304 307 310 313 316 318 319 320 324 326 328 329 331 326 323 327 333 340 342 349 352 355 354 349 349
246 250 255 261 268 271 273 280 282 286 290 291 292 295 298 298 300 303 307 309 313 316 318 321 322 324 327 328 330 332 330 326 326 333 339 343 343 346 353 356 356 355 354
250 255 260 266 266 272 274 277 284 288 290 291 297 299 300 300 303 306 310 312 315 318 321 323 324 325 328 331 334 335 332 328 330 336 340 343 344 347 350 356 358 357 357
248 252 255 258 266 268 273 279 285 290 291 295 298 300 298 303 307 310 312 313 318 320 322 324 325 327 330 331 335 334 334 333 332 335 338 341 343 345 349 355 354 357 358
248 251 254 258 264 269 276 284 289 291 294 298 298 301 304 306 308 310 311 314 318 321 323 325 327 331 331 330 333 336 334 334 335 333 337 339 342 343 347 350 353 354 358
246 254 257 261 266 273 277 281 285 289 292 296 299 304 305 305 308 308 310 315 318 321 324 327 330 332 329 331 331 334 334 333 337 337 336 336 337 339 343 347 349 353 355
247 246 255 263 268 275 278 282 284 289 294 298 301 302 302 304 305 307 311 315 318 321 324 327 331 332 327 328 330 332 336 334 337 340 342 338 337 338 339 342 345 349 353
244 253 260 266 270 274 279 282 289 291 292 296 298 301 300 303 305 307 313 315 318 320 324 326 329 330 326 328 330 330 334 336 333 336 342 344 343 344 343 342 341 345 351
251 253 257 261 266 269 273 280 284 288 291 293 297 299 302 303 305 309 312 316 318 320 322 326 331 328 326 326 330 331 330 335 334 335 341 345 346 348 348 346 344 343 349
247 253 256 259 261 266 272 278 280 286 289 293 296 299 300 303 306 309 312 314 316 319 323 326 329 327 327 328 330 331 327 331 333 333 336 342 346 347 351 352 352 351 349
248 252 253 255 261 265 271 275 280 284 287 293 295 299 301 304 306 308 311 314 315 319 322 325 327 325 326 327 327 329 325 328 332 334 338 335 338 341 345 349 351 349 347
247 250 252 254 258 264 267 271 275 278 282 288 293 297 301 303 305 307 310 313 315 318 322 324 325 324 325 325 326 328 325 324 329 331 334 332 329 332 337 341 344 346 348
244 246 250 254 259 264 268 270 274 280 285 288 293 295 299 301 304 307 310 311 314 318 322 323 323 323 324 324 325 324 325 324 327 327 330 335 329 325 327 330 335 339 342
244 247 252 256 260 265 269 274 277 281 286 289 293 294 297 301 305 307 308 310 316 320 321 321 319 323 324 322 322 320 321 322 324 324 328 330 330 326 323 323 328 331 338
245 251 254 257 261 265 270 272 276 281 286 290 291 295 298 302 304 305 306 310 316 320 320 319 311 316 319 320 319 318 316 318 320 321 326 328 329 328 325 324 325 326 329
247 251 254 258 263 267 270 273 278 284 286 288 291 295 298 301 301 304 307 311 313 315 317 319 312 310 315 319 316 316 313 314 315 318 322 324 325 326 324 322 322 326 326
249 253 256 260 264 268 271 277 281 284 285 289 292 294 298 298 301 307 311 310 312 312 316 316 310 308 313 319 317 313 312 313 313 315 319 323 324 324 325 325 324 323 322
250 254 257 260 264 268 274 278 278 280 284 288 292 295 296 297 302 308 309 308 310 311 314 314 309 307 310 315 314 313 312 312 312 314 318 319 320 320 320 322 322 319 314
250 254 258 262 265 269 271 273 276 281 285 290 291 294 298 301 303 305 305 306 309 309 310 311 311 309 312 314 312 311 310 310 310 312 315 317 317 319 320 320 318 315 313
252 255 257 261 263 265 268 274 279 283 287 286 289 292 295 298 299 302 304 305 306 307 310 311 309 308 309 309 310 310 308 309 311 313 314 315 317 317 317 316 314 312 310
251 253 257 259 261 266 271 276 280 282 285 285 289 292 295 296 300 304 304 306 307 308 307 307 306 307 308 308 308 309 309 310 312 312 313 315 315 316 315 312 311 311 311
255 259 261 265 268 271 276 278 278 279 280 284 288 292 297 299 302 304 305 303 308 306 305 307 307 307 307 307 308 309 310 312 312 313 314 313 315 312 310 311 312 312 312
254 258 263 266 267 269 272 277 279 279 283 286 290 294 297 299 301 300 305 306 306 306 305 305 305 307 307 308 308 310 311 312 313 313 312 312 311 309 310 311 313 314 314
254 256 257 259 260 265 268 273 280 281 284 288 292 296 298 300 300 302 305 307 306 303 303 304 306 307 307 308 310 311 311 312 311 312 312 311 311 311 311 312 313 314 313
252 254 256 262 266 269 272 277 280 282 286 290 294 298 299 300 305 305 306 307 304 304 304 306 307 308 308 310 311 311 310 311 313 312 311 312 312 313 313 314 312 312 315
255 258 262 266 268 272 274 278 282 283 286 291 296 299 298 302 306 306 305 303 305 308 308 307 307 309 311 312 312 312 312 312 312 312 313 312 312 312 311 312 313 315 316
Height
10795 10800 10803 10804 10808 10809 10810 10811 10812 10813 10813 10813 10811 10809 10804 10798 10790 10783 10777 10769 10759 10749 10738 10723 10709 10697 10685 10672 10659 10646 10633 10622 10610 10599 10588 10574 10560 10549 10531 10513 10497 10480 10463
10786 10790 10794 10797 10800 10802 10803 10804 10804 10804 10802 10802 10800 10796 10792 10786 10781 10775 10768 10759 10750 10740 10728 10715 10699 10685 10675 10663 10649 10637 10626 10616 10604 10593 10581 10570 10557 10542 10531 10512 10494 10475 10457
10778 10782 10786 10789 10791 10793 10793 10794 10794 10794 10794 10793 10791 10787 10783 10777 10772 10766 10757 10749 10741 10730 10718 10705 10691 10677 10667 10654 10641 10630 10619 10609 10598 10586 10574 10564 10553 10540 10523 10508 10490 10472 10458
10770 10774 10778 10780 10782 10784 10785 10785 10785 10785 10785 10785 10783 10779 10774 10767 10760 10755 10747 10739 10731 10720 10710 10697 10684 10670 10658 10645 10635 10624 10612 10601 10591 10581 10571 10560 10551 10535 10522 10506 10493 10480 10461
10761 10766 10768 10771 10774 10776 10777 10777 10777 10777 10777 10776 10774 10770 10763 10757 10751 10745 10737 10730 10721 10712 10702 10690 10677 10663 10650 10639 10627 10617 10607 10596 10586 10576 10565 10556 10545 10536 10524 10510 10495 10480 10465
10753 10758 10761 10763 10765 10767 10769 10769 10769 10769 10769 10768 10764 10759 10753 10748 10742 10735 10729 10721 10712 10703 10693 10683 10671 10659 10646 10636 10625 10614 10604 10594 10583 10572 10562 10552 10542 10532 10521 10512 10500 10487 10474
10746 10750 10752 10755 10757 10758 10759 10760 10761 10761 10759 10758 10753 10749 10744 10739 10732 10726 10720 10712 10703 10694 10685 10675 10664 10653 10641 10632 10621 10610 10598 10588 10578 10568 10557 10548 10539 10530 10520 10507 10497 10486 10474
10739 10742 10744 10747 10749 10750 10751 10752 10750 10751 10750 10748 10745 10741 10734 10729 10723 10717 10710 10701 10693 10684 10676 10667 10657 10646 10636 10626 10616 10606 10597 10588 10579 10570 10558 10547 10536 10525 10514 10504 10494 10483 10469
10733 10736 10738 10740 10742 10743 10743 10743 10743 10743 10741 10738 10736 10731 10725 10719 10713 10706 10699 10691 10682 10675 10667 10658 10646 10637 10628 10620 10609 10600 10591 10582 10573 10563 10553 10543 10533 10522 10512 10501 10491 10481 10469
10725 10728 10730 10732 10732 10732 10734 10735 10735 10734 10732 10729 10726 10721 10715 10709 10703 10696 10689 10682 10675 10667 10657 10647 10639 10629 10619 10609 10601 10594 10586 10576 10568 10559 10550 10541 10532 10522 10512 10503 10492 10482 10472
10716 10718 10722 10722 10722 10725 10726 10728 10727 10726 10722 10719 10716 10711 10705 10699 10693 10687 10680 10673 10666 10658 10649 10640 10630 10621 10612 10603 10595 10587 10578 10570 10562 10552 10543 10535 10528 10519 10510 10501 10492 10482 10473
10706 10709 10710 10712 10715 10716 10718 10719 10718 10716 10712 10710 10706 10701 10695 10689 10684 10678 10672 10665 10657 10649 10641 10631 10621 10613 10605 10596 10588 10580 10572 10564 10556 10548 10540 10531 10523 10515 10508 10500 10491 10482 10472
10697 10700 10701 10703 10705 10707 10708 10708 10707 10704 10703 10699 10695 10690 10686 10680 10675 10670 10663 10655 10648 10640 10631 10622 10614 10606 10597 10590 10581 10572 10565 10558 10551 10543 10535 10527 10518 10511 10503 10496 10489 10481 10471
10687 10690 10692 10695 10696 10697 10697 10698 10696 10694 10692 10688 10685 10680 10675 10671 10665 10659 10653 10646 10639 10631 10623 10615 10608 10599 10590 10583 10574 10566 10558 10551 10544 10536 10529 10521 10513 10505 10498 10490 10482 10474 10467
10678 10681 10683 10684 10685 10686 10687 10686 10684 10683 10681 10678 10674 10669 10665 10660 10654 10648 10642 10636 10630 10623 10615 10606 10599 10592 10584 10575 10566 10558 10551 10544 10537 10530 10523 10514 10506 10499 10492 10483 10476 10470 10462
10669 10670 10671 10672 10674 10676 10675 10674 10673 10672 10669 10666 10663 10659 10654 10649 10644 10638 10631 10626 10620 10614 10606 10598 10590 10583 10575 10567 10558 10551 10543 10536 10529 10522 10515 10507 10499 10490 10482 10475 10469 10463 10456
10657 10658 10659 10662 10664 10664 10663 10664 10662 10660 10658 10656 10651 10646 10643 10638 10633 10627 10621 10615 10609 10602 10595 10587 10579 10572 10565 10557 10549 10541 10534 10527 10519 10512 10504 10496 10489 10481 10473 10466 10460 10453 10447
10645 10647 10649 10651 10652 10652 10653 10651 10650 10648 10646 10643 10638 10635 10630 10627 10622 10616 10611 10604 10598 10590 10583 10576 10568 10561 10554 10546 10538 10530 10523 10516 10508 10501 10494 10486 10478 10470 10463 10456 10449 10441 10433
10633 10636 10639 10639 10640 10641 10641 10638 10638 10636 10633 10630 10626 10622 10619 10615 10610 10605 10600 10593 10585 10578 10572 10564 10556 10549 10541 10534 10526 10518 10511 10504 10497 10489 10482 10474 10465 10457 10450 10442 10435 10427 10419
10622 10625 10625 10626 10628 10627 10627 10626 10625 10623 10621 10617 10614 10611 10608 10603 10599 10593 10587 10579 10572 10565 10558 10550 10543 10536 10529 10521 10514 10506 10499 10491 10483 10476 10468 10460 10452 10443 10435 10427 10417 10409 10401
10610 10611 10610 10612 10613 10614 10615 10614 10613 10611 10608 10605 10603 10599 10595 10591 10586 10580 10573 10566 10559 10552 10544 10537 10529 10522 10515 10507 10500 10493 10485 10478 10470 10462 10454 10445 10436 10427 10418 10408 10399 10391 10383
10594 10596 10599 10599 10600 10602 10602 10602 10601 10599 10597 10594 10590 10586 10583 10578 10573 10566 10560 10553 10546 10538 10529 10522 10515 10508 10501 10494 10486 10479 10471 10464 10456 10447 10438 10429 10420 10410 10400 10391 10382 10373 10364
10583 10584 10586 10589 10590 10590 10590 10589 10588 10586 10583 10580 10577 10574 10570 10564 10558 10552 10546 10539 10530 10522 10515 10508 10500 10493 10487 10479 10472 10465 10457 10450 10441 10431 10422 10412 10402 10392 10382 10373 10363 10354 10347
10570 10572 10574 10576 10577 10577 10576 10575 10574 10571 10570 10567 10564 10560 10555 10550 10544 10537 10530 10522 10513 10506 10499 10493 10486 10479 10472 10465 10458 10451 10443 10433 10424 10413 10403 10393 10382 10373 10363 10355 10346 10339 10333
10558 10559 10560 10561 10562 10562 10561 10560 10559 10557 10556 10553 10549 10545 10540 10534 10528 10519 10512 10505 10498 10491 10485 10478 10472 10465 10458 10451 10443 10435 10426 10416 10405 10394 10383 10373 10363 10354 10345 10338 10332 10325 10320
10541 10542 10544 10545 10548 10548 10547 10547 10544 10543 10541 10538 10534 10529 10524 10517 10509 10502 10496 10489 10483 10477 10470 10464 10457 10450 10444 10436 10427 10418 10408 10397 10386 10375 10365 10355 10346 10338 10331 10324 10319 10314 10309